Regional Weather Roundup
Issued by NWS

Home | Current Version | Previous Version | Text Only | Print | Product List | Glossary On
Versions: 1 2 3 4 5 6 7 8 9 10 11 12 13 14 15 16 17 18 19 20 21 22 23 24 25 26 27 28 29 30 31 32 33 34 35 36 37 38 39 40 41 42 43 44 45 46 47 48 49 50
000
ASUS43 KTOP 190608
RWRKS

WEATHER ROUNDUP FOR KANSAS
NATIONAL WEATHER SERVICE GOODLAND KS
100 AM CDT FRI SEP 19 2014

NOTE:  "FAIR" INDICATES FEW OR NO CLOUDS BELOW 12,000 FEET WITH NO
SIGNIFICANT WEATHER AND/OR OBSTRUCTIONS TO VISIBILITY.

KSZ001>006-013>018-027>032-041>047-190700-
NORTHWEST KANSAS

CITY           SKY/WX    TMP DP  RH WIND       PRES   REMARKS
GOODLAND       CLEAR     68  56  65 S16G22    29.94F
6HR MIN TEMP:  68; 6HR MAX TEMP:  83;

HAYS           CLEAR     70  59  68 S15       29.94S
HILL CITY      CLEAR     69  63  81 S8        29.92R
6HR MIN TEMP:  65; 6HR MAX TEMP:  80;

RUSSELL        CLEAR     67  60  78 S17       29.93R
6HR MIN TEMP:  67; 6HR MAX TEMP:  81;

$$

KSZ061>065-074>080-084>089-190700-
SOUTHWEST KANSAS

CITY           SKY/WX    TMP DP  RH WIND       PRES   REMARKS
DODGE CITY     CLEAR     68  61  78 S10       29.98S
6HR MIN TEMP:  68; 6HR MAX TEMP:  84;

ELKHART          N/A     63  56  78 S9          N/A
GARDEN CITY    CLEAR     63  59  87 S8        29.98R
6HR MIN TEMP:  62; 6HR MAX TEMP:  85;

GREAT BEND     CLEAR     66  57  72 S14       29.97R
LIBERAL        CLEAR     64  55  72 S9        30.02S
PRATT          CLEAR     66  59  77 S8        29.99F
$$

KSZ066>073-081>083-090>101-190700-
SOUTHEAST KANSAS

CITY           SKY/WX    TMP DP  RH WIND       PRES   REMARKS
CHANUTE        CLEAR     65  64  97 SE7       30.00S
6HR MIN TEMP:  65; 6HR MAX TEMP:  74;

COFFEYVILLE    CLEAR     66  63  90 E6        29.99S
6HR MIN TEMP:  66; 6HR MAX TEMP:  74;

HUTCHINSON     CLEAR     66  61  84 SE9       29.97S
6HR MIN TEMP:  66; 6HR MAX TEMP:  84;

MEDICINE LODGE   N/A     67  61  81 SE5       29.97S
NEWTON         CLEAR     64  57  77 SE10      30.00S
PARSONS        CLEAR     67  64  90 VRB3      30.01S
6HR MIN TEMP:  66; 6HR MAX TEMP:  74;

WICHITA INTL   CLEAR     67  63  87 SE8       29.98R
6HR MIN TEMP:  67; 6HR MAX TEMP:  80;

WICHITA JABRA  CLEAR     66  62  87 SE9       29.98S
6HR MIN TEMP:  66; 6HR MAX TEMP:  75;

WICHITA MCCONL CLEAR     67  67 100 SE8       29.99R
WINFIELD       CLEAR     67  64  90 SE7       29.99S
6HR MIN TEMP:  67; 6HR MAX TEMP:  76;

$$

KSZ007>012-019>026-033>040-048>060-102>105-190700-
NORTHEAST KANSAS

CITY           SKY/WX    TMP DP  RH WIND       PRES   REMARKS
CONCORDIA      CLOUDY    67  65  93 SE17      29.96S
6HR MIN TEMP:  65; 6HR MAX TEMP:  77;

EMPORIA        CLEAR     63  63 100 SE9       29.99F
6HR MIN TEMP:  63; 6HR MAX TEMP:  69;

LAWRENCE       CLEAR     58  56  93 E6        30.02R FOG
6HR MIN TEMP:  56; 6HR MAX TEMP:  66;

MANHATTAN      MOCLDY    65  62  90 VRB5      29.98S
6HR MIN TEMP:  65; 6HR MAX TEMP:  71;

MARYSVILLE     PTCLDY    63  61  94 SE7       29.99S
OLATHE IND     CLEAR     61  61 100 SE6       30.03S
6HR MIN TEMP:  61; 6HR MAX TEMP:  66;

OLATHE EXE     CLEAR     61  60  97 SE5       30.02R
6HR MIN TEMP:  61; 6HR MAX TEMP:  66;

SALINA         CLEAR     68  63  84 SE9       29.96S
6HR MIN TEMP:  68; 6HR MAX TEMP:  82;

TOPEKA BILLARD CLEAR     62  62 100 E3        30.01S
6HR MIN TEMP:  61; 6HR MAX TEMP:  67;

TOPEKA FORBES  CLEAR     61  60  97 SE7       30.00S FOG
6HR MIN TEMP:  61; 6HR MAX TEMP:  67;

$$


USA.gov is the U.S. government's official web portal to all federal, state and local government web resources and services.